sat.trackr.live / text

‹ back to catalog

LEMUR-2-JULIA-JOEL

NORAD 68476 · 2026-067BN

PAYLOAD ACTIVE UNKNOWN

§ Identity

Operator
Country
LUXE
Launch date
2026-03-30
Launch site
AFWTR
Launch vehicle
Mass (kg)
RCS (m²)

External: N2YO · Heavens-Above · Gunter

§ Orbital elements

Epoch: 2026-09-20T01:02:44.556000Z

Period
96.43 min
Inclination
97.7666°
Eccentricity
0.0001613
Mean motion
14.93306854 rev/d
Perigee alt
586.5 km
Apogee alt
588.8 km
Semi-major
6,965.8 km
B*
2.4313e-4
RAAN
220.0743°
Arg perigee
8.4491°
Mean anomaly
351.6755°
Rev number
2,588

§ Raw data

LEMUR-2-JULIA-JOEL1 68476U 26067BN  26263.04357125  .00002490  00000+0  24313-3 0  99982 68476  97.7666 220.0743 0001613   8.4491 351.6755 14.93306854 25887

JSON: /api/v1/satellites/68476 · /tle

For live sub-satellite position, see the globe view (requires WebGL).

§ Visibility from observer

Set your observer location to see the next 7 days of passes ≥ 10°. The values pass through the URL so the page stays shareable.

No JS? Fill the form by hand. The geolocation button needs JavaScript.